Regional Weather Roundup
Issued by NWS

Home | Current Version | Previous Version | Text Only | Print | Product List | Glossary On
Versions: 1 2 3 4 5 6 7 8 9 10 11 12 13 14 15 16 17 18 19 20 21 22 23 24 25 26 27 28 29 30 31 32 33 34 35 36 37 38 39 40 41 42 43 44 45 46 47 48 49 50
000
ASUS43 KMKX 201200
RWRWI

WISCONSIN REGIONAL WEATHER ROUNDUP
NATIONAL WEATHER SERVICE MILWAUKEE/SULLIVAN WI
600 AM CST THU FEB 20 2020

NOTE: "FAIR" INDICATES FEW OR NO CLOUDS BELOW 12,000 FEET WITH NO
SIGNIFICANT WEATHER AND/OR OBSTRUCTIONS TO VISIBILITY.

WIZ001-002-006>008-014>016-023>028-201300-
NORTHWEST WISCONSIN

CITY           SKY/WX    TMP DP  RH WIND       PRES   REMARKS
SUPERIOR ARPT  FAIR      -8 -15  72 SW7       30.72R WCI -23
6HR MIN TEMP: -14; 6HR MAX TEMP:   1;

ASHLAND        FAIR      -8 -14  74 SW10      30.67R WCI -26
6HR MIN TEMP:  -8; 6HR MAX TEMP:  -3;

HAYWARD        FAIR     -21 -28  70 CALM      30.66R
6HR MIN TEMP: -22; 6HR MAX TEMP: -12;

SIREN          FAIR     -19 -25  73 CALM      30.71R
CUMBERLAND     FAIR     -11 -17  77 CALM      30.66S
RICE LAKE      FAIR     -10 -15  77 CALM      30.69S
6HR MIN TEMP: -10; 6HR MAX TEMP:  -1;

CHETEK         FAIR     -18 -23  80 CALM      30.68S
LADYSMITH      FAIR     -22 -28  72 CALM      30.66S
6HR MIN TEMP: -23; 6HR MAX TEMP: -12;

EAU CLAIRE     NOT AVBL
MENOMONIE      FAIR     -10 -15  77 CALM      30.72S
6HR MIN TEMP: -10; 6HR MAX TEMP:  -3;

NEW RICHMOND   FAIR     -15 -20  76 CALM      30.71S
OSCEOLA        FAIR     -19 -24  77 CALM      30.76S
$$

WIZ003>005-009-010-017-018-201300-
NORTH CENTRAL WISCONSIN

CITY           SKY/WX    TMP DP  RH WIND       PRES   REMARKS
MANITOWISH WTR FAIR     -22 -28  72 CALM      30.56S
6HR MIN TEMP: -23; 6HR MAX TEMP: -14;

ARBOR VITAE    FAIR     -15 -19  81 CALM      30.56R
6HR MIN TEMP: -16; 6HR MAX TEMP:  -6;

WOODRUFF       FAIR     -15 -19  81 CALM      30.56R
6HR MIN TEMP: -16; 6HR MAX TEMP:  -6;

RHINELANDER    FAIR     -19 -22  86 W6        30.55S WCI -34
6HR MIN TEMP: -19; 6HR MAX TEMP:  -5;

EAGLE RIVER    FAIR     -14 -19  78 CALM      30.54S
6HR MIN TEMP: -17; 6HR MAX TEMP:  -3;

LAND O LAKES   FAIR     -16 -21  78 CALM      30.55S
6HR MIN TEMP: -17; 6HR MAX TEMP:  -1;

PHILLIPS       FAIR     -23 -28  76 CALM      30.60R
6HR MIN TEMP: -23; 6HR MAX TEMP: -13;

TOMAHAWK       FAIR     -20 -25  77 CALM      30.59S
6HR MIN TEMP: -21; 6HR MAX TEMP: -13;

MEDFORD        FAIR     -14 -18  83 CALM      30.60S
6HR MIN TEMP: -15; 6HR MAX TEMP:  -8;

MERRILL        FAIR     -24 -30  73 CALM      30.62R
6HR MIN TEMP: -26; 6HR MAX TEMP:  -4;

$$

WIZ029-030-035-036-043>047-201300-
CENTRAL WISCONSIN

CITY           SKY/WX    TMP DP  RH WIND       PRES   REMARKS
WAUSAU         FAIR      -8 -14  74 NW6       30.62R WCI -21
6HR MIN TEMP:  -8; 6HR MAX TEMP:  -1;

MOSINEE        CLEAR     -9 -17  70 NW6       30.64R WCI -23
MARSHFIELD     FAIR     -12 -16  82 NW6       30.63R WCI -26
6HR MIN TEMP: -13; 6HR MAX TEMP:  -2;

STEVENS POINT  FAIR     -21 -27  75 CALM      30.65S
WAUPACA        FAIR      -3 -11  68 CALM      30.68R
6HR MIN TEMP:  -3; 6HR MAX TEMP:   4;

WAUTOMA        FAIR      -9 -14  78 NW6       30.69R WCI -22
6HR MIN TEMP: -11; 6HR MAX TEMP:  -2;

WISC RAPIDS    FAIR     -13 -18  78 CALM      30.68R
6HR MIN TEMP: -15; 6HR MAX TEMP:  -6;

CAMP DOUGLAS   CLEAR    -11 -15  84 W5        30.69R WCI -23
$$

WIZ011>013-019>022-031-037>040-048>050-201300-
NORTHEAST WISCONSIN

CITY           SKY/WX    TMP DP  RH WIND       PRES   REMARKS
ANTIGO         FAIR     -22 -26  82 CALM      30.58S
SHAWANO        FAIR      -3 -11  69 CALM      30.65R
6HR MIN TEMP:  -3; 6HR MAX TEMP:   3;

OCONTO         FAIR     -10 -15  78 W3        30.66R
STURGEON BAY   FAIR      -4 -11  72 VRB7      30.64R WCI -18
6HR MIN TEMP:  -4; 6HR MAX TEMP:   0;

GREEN BAY      FAIR      -5 -14  65 NW9       30.65R WCI -22
6HR MIN TEMP:  -5; 6HR MAX TEMP:   1;

MANITOWOC      FAIR      -3 -11  68 NW6       30.66R WCI -15
6HR MIN TEMP:  -3; 6HR MAX TEMP:   4;

APPLETON       CLEAR     -8 -18  59 W13       30.63R WCI -28
CLINTONVILLE   FAIR      -6 -15  65 NW3       30.66R
OSHKOSH        FAIR      -4 -12  68 W8        30.66R WCI -19
6HR MIN TEMP:  -4; 6HR MAX TEMP:   2;

$$

WIZ032>034-041-042-053>061-201300-
SOUTHWEST WISCONSIN

CITY           SKY/WX    TMP DP  RH WIND       PRES   REMARKS
LA CROSSE      FAIR      -9 -13  83 CALM      30.76R
6HR MIN TEMP: -14; 6HR MAX TEMP:  -1;

SPARTA         FAIR     -22 -27  76 CALM      30.73R
6HR MIN TEMP: -23; 6HR MAX TEMP: -12;

VIROQUA        FAIR      -6  -8  93 CALM      30.66R
6HR MIN TEMP:  -7; 6HR MAX TEMP:   0;

BOSCOBEL       FAIR      -9 -15  75 CALM      30.76R
6HR MIN TEMP:  -9; 6HR MAX TEMP:   0;

PRAIRIE DU CHI FAIR      -5 -11  77 NW5       30.76R WCI -16
6HR MIN TEMP:  -5; 6HR MAX TEMP:   4;

PLATTEVILLE    FAIR      -2  -6  82 NW6       30.70R WCI -14
6HR MIN TEMP:  -2; 6HR MAX TEMP:   5;

$$

WIZ056-057-062-063-064-067-068-201300-
SOUTH CENTRAL WISCONSIN

CITY           SKY/WX    TMP DP  RH WIND       PRES   REMARKS
REEDSBURG      FAIR     -12 -16  83 CALM      30.70R
6HR MIN TEMP: -13; 6HR MAX TEMP:   3;

BARABOO/DELLS  FAIR     -12 -16  83 CALM      30.69R
6HR MIN TEMP: -12; 6HR MAX TEMP:   2;

LONE ROCK      NOT AVBL
MINERAL POINT  FAIR       0  -8  71 CALM      30.66R
MADISON        FAIR      -7 -12  79 CALM      30.68R
6HR MIN TEMP:  -8; 6HR MAX TEMP:   5;

MIDDLETON      FAIR      -9 -14  76 CALM      30.69R
6HR MIN TEMP: -14; 6HR MAX TEMP:   3;

WATERTOWN      FAIR      -2  -9  72 NW3       30.67R
6HR MIN TEMP:  -2; 6HR MAX TEMP:   5;

MONROE         FAIR       1  -8  67 NW7       30.66R WCI -12
6HR MIN TEMP:   1; 6HR MAX TEMP:  10;

JANESVILLE     CLEAR      3  -8  60 NW5       30.69R WCI  -6
$$

WIZ051-052-058>065-066-070>072-201300-
SOUTHEAST WISCONSIN

CITY           SKY/WX    TMP DP  RH WIND       PRES   REMARKS
MILWAUKEE      FAIR       6  -8  52 NW8       30.66R WCI  -7
6HR MIN TEMP:   6; 6HR MAX TEMP:  13;

WAUKESHA       CLEAR     -2  -9  71 NW12      30.66R WCI -20
MILWAUKEE/TIMM FAIR       3  -9  55 NW8       30.68R WCI -10
RACINE         FAIR       5  -7  57 NW6       30.68R WCI  -6
6HR MIN TEMP:   5; 6HR MAX TEMP:  14;

KENOSHA        FAIR       6  -6  57 NW7       30.67R WCI  -6
6HR MIN TEMP:   6; 6HR MAX TEMP:  16;

FOND DU LAC    FAIR      -8 -14  74 CALM      30.67R
6HR MIN TEMP: -10; 6HR MAX TEMP:   2; 6HR PCP: TRACE;

SHEBOYGAN      FAIR      -2 -11  65 NW9       30.64R WCI -18
6HR MIN TEMP:  -2; 6HR MAX TEMP:   4;

WEST BEND      FAIR       0  -9  65 NW5       30.65R WCI -10
JUNEAU         FAIR      -4 -12  70 CALM      30.67R
6HR MIN TEMP:  -4; 6HR MAX TEMP:   2;

$$

LSZ147-162-201300-
LAKE SUPERIOR

STATION/POSITION TIME  TEMP    WIND        PRES    WAVE
                       AIR SEA DIR/SP/G            HT/PER
                 (UTC) (F)     (DEG/KT/KT) (MB)    (FT/S)
DEVILS ISLAND    1100    8     260/ 11/ 13 1038.7R
SAXON HARBOR     1140   -4     200/ 10/ 13 1037.9R
$$

LMZ867-665-643>646-201300-
LAKE MICHIGAN

STATION/POSITION TIME  TEMP    WIND        PRES    WAVE
                       AIR SEA DIR/SP/G            HT/PER
                 (UTC) (F)     (DEG/KT/KT) (MB)    (FT/S)
NORTHPORT PIER   1140    4     260/  5/ 10 1036.2R
KEWAUNEE LAKESHO 1130    0                 1036.6R
SHEBOYGAN LAKESH 1100    2     290/ 14/ 17   N/A
PORT WASHINGTON  1140    2     300/  8/ 12 1039.6R
MILWAUKEE LAKESH 1130    7     300/ 11/ 13   N/A
KENOSHA   LAKESH 1100    6     310/ 11/ 14 1037.6
$$

TC  - TEMPERATURE IN CELSIUS
VSB - VISIBILITY IN STATUTE MILES
WCI - WIND CHILL INDEX
HX  - HEAT INDEX




USA.gov is the U.S. government's official web portal to all federal, state and local government web resources and services.